TimeMST,TemperatureF,Dew PointF,Humidity,Sea Level PressureIn,VisibilityMPH,Wind Direction,Wind SpeedMPH,Gust SpeedMPH,PrecipitationIn,Events,Conditions,WindDirDegrees,DateUTC
12:53 AM,39.0,25.0,57,29.34,10.0,SW,6.9,-,N/A,,Scattered Clouds,230,2013-11-16 07:53:00
1:53 AM,33.1,23.0,66,29.35,10.0,South,8.1,-,N/A,,Scattered Clouds,190,2013-11-16 08:53:00
2:53 AM,35.1,24.1,64,29.32,10.0,SSW,9.2,-,N/A,,Scattered Clouds,200,2013-11-16 09:53:00
3:53 AM,37.0,25.0,62,29.31,10.0,SW,8.1,-,N/A,,Scattered Clouds,230,2013-11-16 10:53:00
4:53 AM,34.0,23.0,64,29.34,10.0,SW,6.9,-,N/A,,Scattered Clouds,220,2013-11-16 11:53:00
5:53 AM,32.0,21.9,66,29.33,10.0,South,8.1,-,N/A,,Scattered Clouds,190,2013-11-16 12:53:00
6:53 AM,32.0,21.0,64,29.34,10.0,SSE,10.4,-,N/A,,Scattered Clouds,160,2013-11-16 13:53:00
7:53 AM,35.1,23.0,61,29.33,10.0,SSE,4.6,-,N/A,,Scattered Clouds,150,2013-11-16 14:53:00
8:53 AM,48.0,19.0,32,29.28,10.0,SSW,13.8,-,N/A,,Scattered Clouds,210,2013-11-16 15:53:00
9:53 AM,54.0,14.0,21,29.27,10.0,SSW,17.3,-,N/A,,Scattered Clouds,210,2013-11-16 16:53:00
10:53 AM,57.9,12.0,16,29.29,10.0,West,9.2,18.4,N/A,,Mostly Cloudy,280,2013-11-16 17:53:00
11:53 AM,57.9,16.0,19,29.25,10.0,SW,4.6,20.7,N/A,,Mostly Cloudy,230,2013-11-16 18:53:00
12:53 PM,57.9,12.0,16,29.22,10.0,SW,5.8,-,N/A,,Mostly Cloudy,230,2013-11-16 19:53:00
1:53 PM,60.1,12.0,15,29.22,10.0,West,6.9,-,N/A,,Mostly Cloudy,270,2013-11-16 20:53:00
2:53 PM,59.0,16.0,19,29.23,10.0,NW,13.8,-,N/A,,Mostly Cloudy,310,2013-11-16 21:53:00
3:53 PM,54.0,19.9,26,29.25,10.0,NW,17.3,-,N/A,,Mostly Cloudy,310,2013-11-16 22:53:00
4:53 PM,50.0,21.0,32,29.31,10.0,WNW,16.1,-,N/A,,Mostly Cloudy,300,2013-11-16 23:53:00
5:53 PM,48.9,21.9,35,29.35,10.0,WNW,21.9,-,N/A,,Mostly Cloudy,300,2013-11-17 00:53:00
6:53 PM,46.9,23.0,39,29.36,10.0,NW,18.4,-,N/A,,Mostly Cloudy,310,2013-11-17 01:53:00
7:53 PM,45.0,24.1,44,29.40,10.0,NW,18.4,27.6,N/A,,Mostly Cloudy,320,2013-11-17 02:53:00
8:53 PM,44.1,28.9,55,29.42,10.0,WNW,19.6,26.5,0.00,Rain,Light Rain,300,2013-11-17 03:53:00
9:53 PM,43.0,27.0,53,29.39,10.0,West,18.4,25.3,0.00,,Overcast,260,2013-11-17 04:53:00
10:53 PM,39.0,28.0,65,29.41,10.0,WSW,9.2,-,N/A,,Scattered Clouds,250,2013-11-17 05:53:00
11:53 PM,42.1,18.0,38,29.43,10.0,West,21.9,27.6,N/A,,Scattered Clouds,270,2013-11-17 06:53:00